Miscellaneous Local Product
Issued by NWS Hastings, NE

Home | Current Version | Previous Version | Text Only | Print | Product List | Glossary Off
Versions: 1 2 3 4 5 6 7 8 9 10 11 12 13 14 15 16 17 18 19 20 21 22 23 24 25 26 27 28 29 30 31 32 33 34 35 36 37 38 39 40 41 42 43 44 45 46 47 48 49 50

342
AXUS43 KGID 221202
MISGRI

GID CWA HOURLY WEATHER ROUNDUP
NATIONAL WEATHER SERVICE HASTINGS NE
700 AM CDT THU JUN 22 2017

NOTE: "FAIR" INDICATES FEW OR NO CLOUDS BELOW 12,000 FEET WITH NO
SIGNIFICANT WEATHER AND/OR OBSTRUCTIONS TO VISIBILITY.

...SOUTH CENTRAL NEBRASKA...

CITY           SKY/WX    TMP DP  RH WIND       PRES   REMARKS
GRAND ISLAND   CLEAR     73  59  61 S17       29.67F
HASTINGS       CLEAR     72  58  61 S14G21    29.70F
KEARNEY        CLEAR     72  55  56 S12       29.68S
ORD            CLEAR     71  57  61 E5        29.62S
YORK           CLEAR     73  59  60 SW17G23   29.67F
AURORA         CLEAR     72  58  61 S14       29.67F
LEXINGTON      CLOUDY    72  59  62 S13       29.66F
HOLDREGE       PTCLDY    70  57  63 S14       29.69S
HEBRON         CLOUDY    75  60  58 S15G23    29.69F

...NEBRASKA PANHANDLE...

CITY           SKY/WX    TMP DP  RH WIND       PRES   REMARKS
CHADRON        CLEAR     60  49  66 N9        29.81R
ALLIANCE       CLEAR     57  52  83 NW12      29.77R
SCOTTSBLUFF    PTCLDY    61  51  70 NW13      29.80R
SIDNEY         CLOUDY    66  45  46 W8        29.81R

...WESTERN AND NORTH CENTRAL NEBRASKA...

CITY           SKY/WX    TMP DP  RH WIND       PRES   REMARKS
VALENTINE      PTCLDY    66  55  67 NE18      29.67S
AINSWORTH      PTCLDY    65  64  99 NE14      29.67S
ONEILL         PTCLDY    68  68  99 NE14      29.69R FOG
BROKEN BOW     CLEAR     72  59  63 SW9       29.63F
IMPERIAL       CLEAR     68  52  56 W13       29.71R
NORTH PLATTE   CLEAR     70  56  61 VRB6      29.66R
MCCOOK         CLEAR     65  57  75 S7        29.68F

...EASTERN NEBRASKA...

CITY           SKY/WX    TMP DP  RH WIND       PRES   REMARKS
NORFOLK        CLEAR     73  57  57 CALM      29.64R
SO SIOUX CITY  FAIR      76  62  62 S8        29.64S
TEKAMAH        MOSUNNY   76  59  55 S10       29.66R
COLUMBUS       CLEAR     75  59  57 S13       29.65F
ALBION         CLEAR     71  58  64 SE5       29.64F
OMAHA EPPLEY   PTSUNNY   77  59  53 S13       29.67S
OFFUTT AFB     PTSUNNY   74  59  58 SE8       29.68S
MILLARD        CLOUDY    76  63  62 SE7       29.68S
LINCOLN        PTCLDY    73  63  70 S8        29.67F
NEBRASKA CITY  CLOUDY    75  60  59 SW13G24   29.71R
BEATRICE       MOCLDY    75  62  64 S14       29.69S
FALLS CITY     CLOUDY    74  62  66 S15G23    29.71F

...NORTHERN KANSAS...

CITY           SKY/WX    TMP DP  RH WIND       PRES   REMARKS
GOODLAND       CLEAR     72  54  53 SW20G26   29.76F
HILL CITY      CLEAR     69  60  73 SW9       29.71F
NORTON         SUNNY     68  54  60 S9        29.69F
PHILLIPSBURG   CLEAR     68  57  68 S5        29.70F
SMITH CENTER   CLEAR     66  59  77 SE12      29.72S
HAYS           CLEAR     64  60  87 CALM      29.75S
RUSSELL        CLEAR     68  59  73 S12       29.72F
CONCORDIA      CLOUDY    72  62  71 S21G30    29.70F
SALINA         CLOUDY    74  63  68 S14       29.73R
TOPEKA         MOSUNNY   71  66  84 SE8       29.76F



USA.gov is the U.S. government's official web portal to all federal, state and local government web resources and services.